Home   Weather   Soest   Past weeks

Flag for Germany Past Weather in Soest, North Rhine-Westphalia, Germany — Yesterday and Last 2 Weeks

Now
57 °F

Passing clouds.


Feels Like: 57 °F
Forecast: 50 / 68 °F
Wind: 5 mph from West

Location: Dortmund / Wickede

Current Time: Aug 20, 2017 at 11:19:18 pm

Latest Report: Aug 20, 2017 at 9:50 pm


Visibility: N/A

Pressure: 30.24 "Hg

Humidity: 63%

Dew Point: 45 °F

Location of SoestLocation

Past Weather in Soest — Graph

°F

Soest Temperature Yesterday

Maximum temperature yesterday: 64 °F (at 1:20 pm)
Minimum temperature yesterday: 52 °F (at 5:20 am)
Average temperature yesterday: 58 °F

High & Low Weather Summary for the Past Weeks

 TemperatureHumidityPressure
High77 °F (Aug 15, 3:20 pm)94% (Aug 5, 9:50 pm)30.24 "Hg (Aug 5, 9:50 pm)
Low48 °F (Aug 6, 5:50 am)29% (Aug 7, 6:20 pm)29.77 "Hg (Aug 8, 11:20 am)
Average63 °F70%30.04 "Hg
* Reported Aug 5 9:20 pm — Aug 20 9:50 pm, Soest. Weather by CustomWeather, © 2017

Note: Actual official high and low records may vary slightly from our data, if they occured in-between our weather recording intervals... More about our weather records

Advertising

Soest Weather History for the Previous 24 Hours

Scroll right to see more
 ConditionsComfort  
Time TempWeatherWind HumidityBarometerVisibility
9:50 pm
Sun, Aug 20
57 °FPassing clouds.5 mph63%30.24 "HgN/A
9:20 pm59 °FClear.3 mph63%30.21 "Hg10 mi
8:50 pm59 °FPassing clouds.6 mph63%30.21 "HgN/A
8:20 pm61 °FSunny.6 mph59%30.21 "Hg10 mi
7:50 pm61 °FSunny.7 mph63%30.18 "Hg10 mi
7:20 pm61 °FPassing clouds.9 mph63%30.18 "HgN/A
6:50 pm63 °FSunny.12 mph56%30.18 "Hg10 mi
6:20 pm64 °FPassing clouds.13 mph56%30.18 "HgN/A
5:50 pm63 °FPassing clouds.13 mph59%30.21 "HgN/A
5:20 pm64 °FPassing clouds.9 mph60%30.18 "HgN/A
4:50 pm59 °FScattered showers. Clear.10 mph72%30.21 "HgN/A
4:20 pm63 °FSprinkles. Partly sunny.10 mph56%30.18 "HgN/A
3:50 pm64 °FPartly sunny.9 mph56%30.18 "HgN/A
3:20 pm61 °FPartly sunny.13 mph63%30.18 "HgN/A
2:50 pm63 °FBroken clouds.13 mph59%30.21 "HgN/A
2:20 pm63 °FScattered clouds.15 mph59%30.18 "HgN/A
1:50 pm63 °FScattered clouds.13 mph59%30.18 "HgN/A
1:20 pm64 °FSunny.13 mph56%30.18 "Hg10 mi
12:50 pm61 °FScattered clouds.12 mph68%30.18 "HgN/A
12:20 pm61 °FScattered clouds.13 mph63%30.18 "HgN/A
11:50 am61 °FPartly sunny.15 mph68%30.18 "HgN/A
11:20 am61 °FPartly sunny.14 mph68%30.18 "HgN/A
10:50 am61 °FSunny.14 mph72%30.18 "Hg10 mi
10:20 am59 °FSunny.13 mph72%30.18 "Hg10 mi
9:50 am57 °FSunny.14 mph77%30.18 "Hg10 mi
9:20 am57 °FSunny.15 mph77%30.15 "Hg10 mi
8:50 am55 °FSunny.13 mph82%30.15 "Hg10 mi
8:20 am54 °FSunny.13 mph82%30.15 "Hg10 mi
7:50 am54 °FSunny.10 mph82%30.15 "Hg10 mi
7:20 am54 °FSunny.13 mph82%30.15 "Hg10 mi
6:50 am52 °FSunny.10 mph88%30.12 "Hg10 mi
6:20 am54 °FClear.12 mph82%30.12 "Hg10 mi
5:50 am52 °FClear.10 mph88%30.12 "Hg10 mi
5:20 am54 °FPassing clouds.12 mph82%30.12 "HgN/A
Weather by CustomWeather, © 2017

See weather overviewHow to use our weather pages